Wind_Speed
11 9 6 4 6 7 5 3 2 3 2 1 3 1 4 3 1 2 3 2 1 2 3 1 3 4 3 3 6 6 5 7 7 5 3 5 5 7 18 8 5 8 17 19 16 17 14 14 12 11 11 11 10 9 9 7 7 5 5 5 4 3 3 3 4 5 6 6 6 7 8 9 10 11 11 11 11 12 12 12 12 12 14 15 15 15 16 18 20 20 21 22 21 20 19 20 20
10 8 4 2 6 5 1 3 2 3 3 3 3 3 4 3 1 4 6 5 5 3 1 1 1 0 1 1 2 1 5 7 5 3 3 3 3 12 19 9 7 9 16 17 16 17 15 14 11 10 10 11 10 9 9 7 6 5 5 5 3 3 2 3 4 5 6 5 6 7 8 9 10 10 10 11 11 11 11 11 11 12 14 14 14 15 16 19 19 20 22 22 20 20 19 20 21
9 6 3 1 4 4 1 3 2 0 1 3 5 4 2 2 5 7 8 7 5 3 1 1 1 0 1 2 1 1 5 5 3 3 3 3 2 12 19 10 9 9 13 15 15 16 14 13 10 10 10 11 10 10 9 7 6 5 5 4 2 2 2 3 4 5 5 5 6 7 8 9 9 10 10 10 10 11 11 11 11 12 13 13 14 15 17 19 19 20 22 22 20 19 20 20 21
7 4 4 2 2 3 3 3 1 3 1 3 3 5 2 4 7 7 6 5 4 2 1 1 1 2 3 4 3 0 6 5 4 6 1 5 5 10 19 11 9 11 12 14 14 14 12 11 10 10 10 10 10 10 8 7 6 5 5 4 2 2 2 3 4 5 5 5 6 7 8 8 9 9 9 10 10 10 11 11 11 12 13 13 14 15 17 18 19 21 22 22 19 19 20 20 21
4 2 3 3 2 1 3 1 1 3 4 4 2 6 5 6 6 6 5 4 2 1 2 2 1 2 2 5 3 1 6 3 4 8 2 3 7 10 17 13 10 12 12 13 13 12 11 10 10 10 11 10 10 9 7 6 5 5 5 3 2 2 3 3 4 4 4 4 6 7 8 8 8 9 9 9 9 10 11 11 11 12 13 13 14 15 17 18 19 21 21 22 19 18 19 20 22
2 1 3 4 2 1 3 1 2 2 5 5 3 6 5 5 6 4 4 4 1 1 2 1 1 1 2 4 3 5 5 1 1 7 4 2 7 11 16 15 12 12 12 13 12 12 11 11 11 11 10 10 10 9 7 6 5 5 5 4 3 3 3 4 4 4 4 4 5 6 7 8 8 8 9 9 9 10 10 11 11 11 12 13 14 15 17 18 19 20 21 21 20 19 19 21 22
1 0 3 4 1 1 3 3 4 4 5 6 4 6 5 4 4 2 2 1 0 1 1 0 0 1 3 3 2 6 6 4 1 3 6 4 8 12 15 16 14 13 12 12 12 12 11 11 11 11 10 9 10 8 7 5 5 5 6 5 3 3 3 4 4 4 4 4 4 6 7 7 7 8 8 9 9 9 10 11 11 11 12 13 14 15 17 18 19 20 21 21 20 19 19 21 21
2 0 1 3 0 2 2 3 4 3 4 4 5 6 6 4 3 4 3 1 1 1 1 2 0 0 5 3 2 6 4 8 4 2 6 6 9 13 15 17 15 14 13 12 12 12 12 12 12 10 9 9 10 9 8 6 5 6 7 5 4 4 4 4 4 4 3 3 4 5 6 6 7 7 8 9 9 9 10 11 11 11 12 13 14 15 17 18 18 19 20 20 20 19 19 20 21
2 1 0 2 2 1 0 2 3 3 5 5 4 6 6 3 4 4 4 3 2 0 2 4 2 3 5 5 5 6 3 9 9 6 6 8 10 12 15 16 15 14 13 13 12 12 12 12 12 11 9 9 9 9 8 7 7 7 7 6 4 4 4 4 4 4 3 3 4 5 5 6 7 7 8 8 8 8 9 10 10 11 12 13 13 14 17 17 18 19 20 20 20 20 20 21 22
2 2 2 1 2 2 3 2 3 3 5 5 5 8 6 3 4 3 4 3 2 1 3 2 3 4 5 5 6 5 2 6 10 10 8 10 12 13 15 15 14 12 12 13 12 12 13 13 12 11 10 9 8 8 8 8 8 7 7 5 4 4 4 4 4 4 4 4 4 5 5 5 7 7 8 8 8 8 7 8 8 10 11 12 13 14 16 17 16 17 19 20 20 20 20 21 21
1 2 2 1 2 3 4 4 4 4 5 4 6 7 6 4 5 2 3 3 2 2 2 3 2 5 3 5 6 3 3 4 9 12 11 12 14 14 14 15 14 12 11 11 12 12 13 13 13 12 10 9 8 8 8 8 8 7 6 5 5 4 4 4 4 4 4 4 4 5 5 5 6 7 7 8 8 8 7 7 6 8 11 12 13 13 15 16 15 16 18 19 20 20 20 21 20
1 1 3 2 3 4 4 3 5 5 6 4 4 4 2 6 4 3 4 3 2 1 4 5 2 3 2 5 5 5 6 7 10 11 12 14 14 15 15 15 15 13 11 10 11 12 13 13 13 12 11 9 8 9 9 8 8 8 7 6 5 5 4 4 4 4 4 4 4 4 5 5 6 6 7 8 9 9 8 7 6 6 9 11 13 13 15 15 15 16 17 18 19 19 20 20 19
3 3 5 2 3 3 3 2 4 4 6 4 4 2 2 6 4 6 6 2 3 1 7 8 3 3 3 5 4 6 6 7 9 10 13 16 16 17 16 16 15 14 13 12 12 12 13 13 13 12 11 10 9 9 9 9 8 8 8 7 6 5 5 5 4 4 4 4 4 4 4 5 6 6 7 8 9 10 9 8 6 5 7 9 11 13 14 15 16 17 17 17 18 19 19 19 19
3 3 5 3 0 2 4 2 3 2 4 5 3 2 1 3 4 5 6 2 6 5 5 6 6 2 4 4 5 5 5 4 9 12 14 17 17 18 17 17 16 16 15 14 13 12 13 13 13 12 11 10 10 10 10 9 9 8 8 8 6 5 5 5 4 4 4 3 3 3 4 5 5 6 7 8 9 10 9 8 7 5 6 8 10 12 13 14 16 17 17 17 18 19 19 20 19
3 2 4 2 0 0 3 3 3 3 4 5 1 0 1 4 3 4 5 5 7 5 1 2 6 2 4 4 4 5 5 4 10 13 14 18 18 19 18 18 17 17 16 15 14 13 13 13 13 13 12 11 11 12 11 10 9 9 9 8 7 6 5 5 4 4 4 3 2 2 4 5 5 6 8 9 9 10 10 9 8 6 6 8 9 11 12 13 15 17 17 17 18 18 18 20 19
2 3 4 1 2 2 3 3 3 2 5 5 2 1 0 5 3 2 5 4 4 2 1 4 5 3 4 7 7 5 6 2 12 12 15 17 17 19 19 19 19 18 18 17 16 15 15 15 14 14 13 12 12 12 12 11 9 9 9 8 7 6 6 5 5 4 4 4 2 2 3 4 5 6 8 9 9 10 10 9 9 7 7 7 8 10 11 12 15 17 17 17 17 19 20 19 17
2 3 2 1 3 4 4 4 4 3 5 5 4 1 2 5 2 2 1 2 4 3 2 5 4 3 6 7 6 3 3 7 13 13 15 15 17 18 18 20 20 21 21 20 19 17 17 17 16 15 14 13 13 13 13 12 10 9 9 9 8 7 7 6 6 5 5 5 3 2 3 4 5 7 8 9 10 10 10 9 9 7 6 7 8 9 10 11 14 17 18 18 18 20 21 19 17
1 2 2 4 4 4 6 7 6 5 2 3 2 2 5 3 4 1 2 2 4 4 5 6 6 8 12 13 9 5 2 10 14 16 17 15 16 16 18 21 22 24 24 23 22 20 20 19 17 17 16 15 13 13 14 12 10 10 10 9 9 9 8 7 7 6 6 6 4 3 3 4 5 7 8 9 10 10 10 10 9 7 6 7 7 8 9 10 13 16 18 19 19 19 20 20 20
2 3 2 5 5 5 6 7 6 4 3 4 2 1 5 5 3 1 3 7 5 5 7 4 7 12 15 18 15 10 7 12 17 19 19 18 19 18 19 22 23 25 26 26 25 23 22 20 19 19 17 16 15 15 15 13 11 10 10 10 10 10 9 8 8 7 6 6 5 4 3 4 5 7 8 9 10 10 9 9 9 7 6 6 6 7 7 9 11 14 17 18 18 18 19 20 19
2 3 2 6 5 5 5 6 7 5 3 2 3 1 2 5 3 1 3 8 8 9 8 4 8 13 13 13 12 12 11 15 18 19 20 21 22 23 22 24 26 28 29 29 27 26 24 22 21 20 18 17 16 16 15 14 13 11 11 11 11 10 10 9 8 8 7 6 5 4 4 4 5 7 7 8 9 9 9 8 8 6 5 6 5 6 6 7 10 12 14 17 18 18 19 20 18
1 3 4 5 4 3 6 7 7 6 3 2 1 1 3 5 2 2 2 6 12 10 8 9 12 13 12 10 8 10 12 13 16 18 19 20 22 24 26 28 29 30 30 28 28 28 26 24 22 20 19 18 18 17 17 15 13 13 12 12 12 11 10 9 9 8 7 6 5 4 4 4 5 6 7 8 9 9 8 8 7 5 5 5 5 6 6 7 9 10 12 16 18 18 19 21 21
1 3 5 5 4 3 6 6 5 4 2 2 2 1 5 1 1 5 5 7 12 5 6 12 13 12 11 9 5 7 9 10 12 15 17 19 22 25 27 29 28 27 27 28 30 29 27 26 23 21 20 19 19 18 17 16 14 14 13 12 12 12 11 10 9 8 7 6 5 4 3 4 4 5 6 7 8 8 8 8 7 5 4 5 5 5 6 6 8 9 11 16 18 18 20 22 24
2 4 3 4 4 4 4 1 3 5 4 3 3 3 1 2 5 6 8 15 17 7 4 9 11 10 7 5 4 6 9 11 12 16 20 22 24 28 30 30 30 29 28 30 31 30 28 27 24 23 21 20 20 19 18 17 16 15 13 12 13 12 11 10 8 7 7 6 5 4 3 3 4 5 5 7 8 7 7 8 7 5 4 5 5 5 6 6 7 8 10 13 15 17 19 21 23
2 4 4 3 4 5 3 1 2 4 5 6 2 2 1 4 7 2 8 18 16 12 9 10 10 7 4 4 6 8 10 12 14 21 26 27 30 32 32 31 32 30 29 32 32 30 29 28 26 25 23 22 20 20 19 18 16 15 14 13 13 12 11 10 8 7 7 7 6 5 4 3 4 4 5 6 7 6 7 7 7 6 5 5 5 5 5 5 6 7 8 10 13 15 17 18 21
3 5 4 1 3 6 5 3 3 4 6 4 1 5 7 9 4 4 18 20 11 11 10 10 10 8 6 8 10 9 9 11 14 20 24 27 29 28 28 29 29 28 31 34 33 31 30 28 28 27 25 24 22 21 20 18 17 16 15 15 14 13 12 10 9 8 8 7 6 5 4 4 3 4 4 6 6 6 6 7 7 6 5 5 5 5 4 4 4 6 7 8 10 11 13 16 18
5 6 3 2 4 6 4 4 6 5 5 2 3 9 9 7 3 9 21 15 6 4 5 5 5 7 9 10 11 10 10 11 12 16 21 25 25 25 28 28 28 31 34 35 34 33 30 28 29 29 27 25 24 23 21 19 18 18 17 16 15 14 13 10 10 9 8 8 7 6 5 4 4 4 4 5 6 5 6 6 6 5 5 5 4 4 3 3 4 5 5 7 8 9 11 14 17
4 4 3 4 5 5 2 5 6 3 3 4 6 10 8 3 2 9 12 2 1 4 6 6 3 8 9 8 10 8 10 13 15 15 16 18 21 25 28 27 29 34 34 34 36 35 31 30 29 29 28 27 26 25 23 21 19 19 18 17 16 15 13 11 11 10 9 9 8 7 6 5 4 4 5 5 5 5 5 5 6 5 5 5 3 2 3 3 3 4 5 6 7 9 11 14 16
2 1 4 7 6 5 4 7 6 1 3 5 7 8 8 1 1 15 11 1 4 7 10 10 6 9 9 8 9 6 8 14 16 13 12 16 22 26 27 30 34 35 34 37 38 35 33 31 29 29 29 28 28 27 24 22 21 19 19 18 17 16 14 12 11 11 10 10 9 8 7 5 5 5 5 5 5 5 5 5 5 5 4 4 3 2 3 3 3 4 5 6 7 8 10 14 15
1 2 4 8 8 6 6 5 3 3 2 5 6 6 9 5 10 21 11 5 7 8 11 12 8 9 8 7 8 6 8 11 11 13 19 24 26 27 30 34 35 35 37 39 37 35 35 32 29 29 29 29 29 28 26 24 22 20 20 19 17 16 15 13 12 11 11 11 10 10 8 7 6 5 5 5 4 5 5 5 4 4 3 3 2 2 3 2 3 5 6 6 7 7 10 14 13
1 2 2 5 8 6 6 2 1 4 3 3 4 6 9 8 14 19 7 5 7 8 10 10 8 8 7 7 6 7 8 8 10 17 25 29 28 28 31 35 33 35 37 36 35 36 36 33 31 30 30 30 30 29 27 25 23 21 20 19 18 17 16 14 12 11 11 11 12 11 10 8 7 6 6 5 5 5 5 4 3 3 2 2 2 2 2 1 4 7 7 7 7 7 10 12 12
1 1 2 3 2 5 6 1 2 4 1 1 3 5 8 4 10 13 5 1 1 6 10 8 9 8 7 7 6 9 9 8 14 22 27 28 29 29 32 34 31 34 35 34 36 37 36 34 32 31 31 31 31 30 28 26 23 22 21 20 19 18 17 15 13 12 12 12 12 12 11 9 7 6 6 5 5 5 4 4 3 2 1 0 1 1 2 2 6 8 8 7 8 8 10 12 12
2 2 3 3 2 5 8 2 3 2 1 2 3 5 8 6 10 10 3 3 3 5 11 10 11 11 10 10 7 9 9 9 14 22 27 28 29 30 33 34 32 33 35 35 37 35 35 34 33 32 31 31 31 30 29 26 24 22 21 20 19 19 18 17 14 13 13 13 13 12 11 10 8 7 6 6 5 5 5 4 3 1 0 1 1 0 1 3 8 10 9 8 9 12 13 15 15
3 0 4 3 3 4 7 2 1 1 1 1 3 4 7 5 9 10 1 1 4 8 13 14 14 13 12 10 8 8 9 9 11 17 24 26 29 32 33 34 33 34 34 35 35 34 34 34 33 33 31 31 31 30 29 27 25 23 22 20 19 19 19 17 15 14 14 14 13 13 12 10 9 8 7 6 6 7 6 5 4 2 1 1 2 2 1 3 9 11 11 10 10 13 16 17 18
3 1 2 4 3 3 5 4 3 2 2 2 3 5 12 10 10 15 9 5 8 11 14 15 14 13 12 10 9 9 9 10 11 13 19 22 26 30 31 33 32 32 33 33 34 34 34 34 34 33 31 30 30 30 29 27 25 23 22 20 20 19 19 18 16 16 16 15 14 13 13 11 10 9 8 7 7 8 8 7 6 4 2 1 3 4 2 4 9 11 13 14 12 14 16 18 20
1 2 2 3 3 3 4 4 2 2 1 4 4 7 17 15 11 16 15 7 8 14 13 12 13 14 13 11 10 10 10 11 13 13 15 18 22 25 28 30 30 30 31 32 32 32 32 33 34 33 32 30 30 30 29 28 26 25 24 22 20 20 20 19 18 17 16 16 15 14 14 12 11 10 8 8 8 9 9 8 7 6 4 2 3 5 4 5 10 13 14 16 15 15 17 20 22
4 4 4 2 5 4 5 6 5 1 2 6 7 8 16 17 12 13 16 8 7 14 13 10 12 12 12 12 10 10 10 12 12 12 14 16 19 21 23 26 28 28 28 29 30 30 31 32 32 32 32 31 31 31 30 29 28 26 25 23 23 22 22 21 19 18 17 17 15 15 15 13 12 11 9 9 9 10 10 9 9 7 7 5 3 5 6 5 10 15 16 17 19 20 21 22 23
4 3 1 3 5 6 6 5 6 1 1 7 6 7 14 17 15 14 14 11 9 15 14 11 12 11 10 11 11 10 11 11 10 12 14 14 16 18 19 21 23 24 25 27 29 30 31 32 33 33 33 33 34 34 32 31 30 28 26 26 26 24 23 22 20 20 19 18 17 16 16 14 13 12 10 10 11 11 11 10 10 9 9 7 4 5 7 6 11 16 18 19 20 24 25 23 23
3 1 2 4 4 6 7 3 5 2 1 5 2 5 15 17 17 15 13 11 13 14 12 13 13 10 9 10 12 11 9 9 9 10 11 12 14 15 16 18 20 23 25 28 30 31 32 33 33 34 34 35 36 35 33 33 32 30 28 28 27 25 24 24 22 21 20 19 18 17 17 16 14 13 11 11 11 12 12 11 11 10 10 9 7 7 9 9 12 17 20 20 21 24 24 25 22
3 2 1 4 3 5 7 4 5 2 1 5 5 7 15 19 17 17 15 11 12 12 10 12 11 9 10 10 10 10 9 10 9 9 7 8 11 11 14 17 20 23 25 28 30 30 31 33 33 34 35 37 37 36 34 34 32 30 28 26 25 24 24 24 23 21 21 20 20 19 18 17 15 14 12 12 12 12 12 12 11 11 11 11 10 9 10 11 13 19 21 21 22 23 22 24 16
2 3 2 4 3 2 4 4 5 2 1 4 6 6 12 15 12 13 12 8 7 8 8 9 8 10 12 10 8 8 10 11 10 10 7 6 7 8 12 16 19 21 22 25 27 29 31 34 34 35 35 37 37 36 35 33 31 28 26 24 22 22 22 22 22 22 22 22 21 21 20 19 17 15 14 12 12 13 13 13 12 12 12 12 11 11 12 13 15 19 22 22 24 23 21 20 11
2 4 5 4 3 3 5 5 6 4 2 2 5 6 7 7 7 8 7 3 5 5 5 8 8 9 10 9 9 8 9 9 9 11 9 6 5 7 11 14 16 19 22 25 29 31 33 35 36 36 36 36 37 36 35 33 30 28 26 21 18 19 18 19 22 24 24 24 24 23 21 20 18 16 15 14 13 13 13 14 14 13 13 13 13 13 12 13 15 19 22 24 24 23 22 20 12
5 4 6 5 3 4 5 6 6 5 4 3 5 5 6 6 6 9 8 7 9 5 4 9 9 7 6 7 8 7 7 7 8 9 9 7 6 6 9 12 15 19 24 27 30 32 34 34 35 35 35 36 36 36 36 34 32 30 29 25 22 21 19 21 26 28 27 27 26 24 22 20 19 17 16 15 14 14 15 15 15 14 14 14 14 14 13 13 15 18 22 24 25 23 22 22 16
3 3 3 4 2 0 3 5 4 2 4 4 4 2 6 7 7 12 9 9 13 10 7 9 9 6 5 5 6 6 6 6 6 8 8 7 6 5 8 13 17 21 24 25 26 29 31 32 34 35 35 35 36 36 36 35 34 33 32 31 29 27 26 27 29 28 27 27 25 24 23 21 19 18 18 17 16 16 16 16 16 16 15 15 15 15 15 15 15 16 20 23 25 24 22 23 20
3 3 3 4 4 2 1 4 3 1 4 5 3 3 3 6 7 10 6 8 13 12 11 9 6 6 6 5 6 6 6 6 6 7 7 7 6 6 9 13 18 20 19 20 24 27 30 31 33 34 35 35 36 36 37 37 36 35 34 33 32 31 30 29 28 26 26 25 24 24 23 22 21 20 19 19 18 17 17 17 17 16 16 16 16 17 16 15 15 16 19 22 25 25 24 23 22
3 4 4 4 4 3 3 4 3 1 3 5 3 2 1 6 7 6 4 6 10 11 10 8 7 7 6 7 8 7 6 6 5 6 7 7 6 7 10 12 15 17 17 18 23 26 28 29 30 32 33 34 35 36 37 37 36 36 35 34 32 32 30 28 24 24 24 24 24 24 24 23 22 21 21 20 19 19 19 18 18 18 17 17 17 17 16 16 16 17 19 21 23 25 25 24 23
3 4 3 3 4 4 4 4 3 3 3 3 3 2 0 5 7 4 1 2 7 8 7 7 8 8 7 8 9 8 7 6 5 6 6 7 9 10 10 10 11 14 15 17 19 22 24 26 27 29 32 33 34 35 36 37 36 36 36 35 34 32 29 26 23 22 23 24 24 25 25 25 24 23 23 22 21 21 20 19 19 19 18 18 18 18 18 18 18 18 19 20 21 23 23 24 24
3 3 3 4 4 4 4 3 3 4 2 5 4 1 1 3 6 5 3 3 4 3 6 8 9 10 9 8 7 7 7 6 6 6 6 7 10 11 8 8 10 11 13 15 17 20 22 24 26 28 30 31 32 34 35 36 37 37 37 36 35 33 30 28 25 23 24 25 26 26 26 26 25 25 25 24 24 22 21 21 20 19 19 19 19 19 19 19 18 18 19 19 20 21 22 22 23
4 3 3 3 4 4 4 4 4 3 4 6 4 2 2 3 6 5 4 5 4 2 6 11 12 13 11 9 8 6 6 6 6 7 6 6 7 7 6 7 9 10 13 16 17 19 21 24 26 27 28 30 31 33 35 36 37 38 38 37 36 35 33 31 30 29 28 28 28 28 27 27 27 27 27 26 26 24 23 22 21 21 21 21 21 20 19 19 18 18 19 20 20 21 21 22 23
4 4 4 3 3 4 3 4 1 2 5 4 3 2 2 6 9 9 11 12 9 7 8 10 11 13 12 12 11 7 6 7 6 6 6 5 5 5 5 7 9 11 15 17 18 20 22 24 26 27 29 31 32 33 34 36 38 38 38 37 37 36 34 34 33 32 32 31 30 29 29 29 29 29 29 29 28 26 25 24 24 23 23 22 22 21 20 19 19 20 20 21 21 22 22 22 23
3 4 4 3 2 2 2 4 2 3 4 2 3 2 2 6 8 9 11 10 9 8 9 10 10 11 12 12 11 10 9 8 6 6 6 5 5 5 6 8 11 13 16 18 20 21 22 24 27 29 30 31 32 33 35 36 38 39 39 38 38 37 36 36 36 35 34 33 32 31 31 31 31 31 30 29 28 27 26 26 25 24 23 23 22 21 20 20 20 21 21 22 22 22 22 23 23
3 4 5 3 4 4 3 4 3 4 3 3 3 1 3 4 5 7 7 7 7 7 8 8 8 9 9 10 10 10 10 7 6 6 6 6 6 6 7 9 12 14 16 18 21 22 23 25 27 29 31 31 32 34 35 36 38 38 39 39 39 38 38 38 37 37 35 34 33 32 32 32 31 31 29 28 27 27 27 26 26 25 25 24 23 22 22 21 22 23 23 23 23 23 23 24 24
1 2 5 2 3 4 2 3 4 1 3 3 2 3 5 4 9 13 9 7 7 5 4 5 7 7 6 7 9 8 8 7 6 6 6 6 6 6 8 10 13 14 16 18 21 23 25 26 28 30 31 32 33 35 36 37 38 38 38 39 40 39 39 38 38 37 36 35 34 33 33 32 32 31 29 28 28 27 27 27 27 27 26 26 26 25 24 24 24 25 25 26 25 25 24 24 24
2 2 2 4 3 5 3 1 1 3 1 4 1 3 5 4 9 11 7 8 9 7 5 5 7 7 5 6 7 6 7 7 6 6 7 6 5 6 9 11 13 14 16 18 21 24 26 28 29 30 31 31 32 34 36 37 37 37 38 39 40 40 39 39 39 39 38 36 35 34 33 33 32 31 30 29 29 28 27 27 28 28 28 28 28 27 27 26 26 26 26 26 26 25 24 24 23
4 2 4 3 2 4 4 0 3 3 2 4 1 3 5 3 4 7 8 10 11 10 9 7 8 8 7 7 7 7 7 7 7 7 7 7 6 6 8 11 14 15 17 19 21 23 25 28 29 30 31 32 33 35 36 36 36 37 38 39 40 40 40 40 40 39 38 36 35 35 34 33 33 32 31 30 30 29 29 29 29 30 30 30 29 28 27 26 26 26 26 26 26 25 24 24 24
3 2 2 2 2 1 2 1 1 1 2 4 3 4 4 4 5 6 9 10 11 11 9 8 9 8 7 8 8 8 7 6 7 7 6 6 6 6 9 11 13 15 17 18 19 21 24 27 28 29 31 33 33 34 34 35 36 36 37 38 39 39 39 40 40 38 37 36 36 36 35 34 34 33 33 32 32 32 31 31 30 30 31 30 30 29 28 27 27 27 27 27 26 26 25 25 25
2 1 2 2 3 3 2 2 3 3 2 3 4 4 3 7 6 5 10 12 10 10 9 7 9 8 7 7 7 8 7 6 6 6 6 6 6 8 10 12 14 15 16 18 18 20 22 25 27 29 30 31 30 31 32 34 35 36 36 36 36 37 39 39 40 38 37 37 37 37 36 36 36 35 35 34 34 33 33 32 31 31 31 31 31 30 29 29 28 28 28 28 28 27 27 27 27
2 0 1 1 1 2 0 1 2 3 2 2 2 4 7 7 5 8 13 13 10 9 8 8 9 9 8 7 7 8 7 7 7 6 7 7 7 9 11 12 13 14 16 17 18 20 22 24 27 29 29 29 30 31 32 34 35 36 36 35 36 37 38 39 39 38 38 39 38 38 38 38 37 37 36 35 35 34 33 33 32 32 32 32 32 32 31 31 31 31 30 30 30 29 29 29 28
5 4 5 4 4 4 1 3 1 2 2 4 2 4 10 6 5 9 12 11 9 8 7 8 9 9 9 8 7 7 7 8 8 7 7 7 7 9 10 10 11 13 16 18 19 21 23 25 27 28 28 30 32 33 34 35 35 35 36 37 38 38 38 38 38 39 39 39 40 40 40 39 38 37 36 35 35 34 34 34 33 33 33 33 33 33 33 33 33 33 33 32 32 31 31 31 30
Wind_Direction
327 331 335 347 344 335 333 51 50 317 78 267 277 222 262 243 232 253 255 254 224 238 214 210 160 154 138 168 196 203 193 178 172 149 203 245 325 181 171 155 147 161 174 180 179 178 179 180 188 189 187 185 188 190 191 206 218 225 224 246 265 287 315 336 346 352 350 349 345 346 346 345 345 343 343 342 343 343 342 341 342 341 339 337 338 337 336 335 336 341 344 343 340 338 337 336 337
329 333 342 359 4 4 300 75 81 319 34 297 283 188 262 312 293 235 223 205 204 239 283 212 179 78 89 157 183 233 252 223 193 177 244 279 349 173 168 152 146 157 172 178 179 180 182 183 192 193 188 185 187 188 196 215 218 224 231 253 274 297 324 338 346 351 347 344 342 348 347 347 346 344 345 343 345 344 344 344 343 341 339 337 336 336 336 336 339 342 342 342 338 336 335 336 338
329 337 4 6 18 44 65 39 101 21 34 270 281 237 269 301 239 239 226 210 222 262 300 193 142 243 86 324 261 160 265 267 230 219 278 229 158 175 173 155 144 156 173 179 181 183 186 187 195 196 190 186 186 189 203 219 215 229 241 257 275 297 320 332 344 347 343 344 345 351 350 348 347 346 347 346 347 346 346 345 344 341 339 337 336 335 334 337 340 341 339 339 337 333 335 337 337
329 345 12 39 47 40 65 32 148 135 205 242 275 268 244 217 245 258 249 239 254 327 354 152 146 215 165 248 254 271 260 272 233 197 249 205 176 176 176 165 153 163 174 182 185 186 189 191 199 196 192 188 185 192 208 218 215 236 248 262 269 292 316 328 341 344 344 349 353 352 350 349 348 348 349 351 348 347 348 346 346 342 340 338 335 335 333 337 341 343 340 339 338 333 335 337 336
322 344 11 66 91 34 95 63 109 133 215 197 228 271 239 218 258 274 286 293 264 39 75 101 279 277 164 226 208 206 246 261 243 203 203 205 177 171 178 177 169 170 178 185 189 190 191 195 200 196 193 189 186 196 212 217 216 236 253 268 284 311 323 333 340 344 348 352 358 353 351 351 350 352 352 352 348 349 350 348 348 343 341 337 335 334 334 338 342 346 344 341 340 336 336 337 336
325 53 34 65 94 117 120 221 203 217 228 172 198 262 248 229 249 261 301 320 284 172 139 95 259 322 290 249 201 209 230 106 188 203 206 196 181 176 179 182 175 177 183 187 192 192 194 197 196 194 193 190 190 201 213 219 220 234 253 267 291 320 329 336 343 346 350 356 358 350 350 349 346 349 352 350 347 349 350 349 348 343 341 338 337 336 337 342 344 347 346 344 343 338 337 336 337
26 71 25 70 54 37 127 212 214 238 239 178 198 253 275 267 232 214 299 318 193 236 103 272 223 45 265 282 272 240 226 194 134 193 204 185 182 180 180 183 176 179 185 190 194 192 196 195 192 193 193 192 193 201 210 220 223 229 254 270 294 319 329 334 342 344 346 356 355 346 344 342 339 341 349 348 343 345 348 348 347 345 344 341 341 340 341 344 344 348 350 348 346 341 337 336 337
76 101 23 101 123 6 127 226 229 218 243 213 218 242 273 281 196 166 212 216 216 259 39 289 355 127 269 350 290 254 232 219 222 192 196 190 185 180 182 184 179 179 186 192 194 194 195 192 192 194 193 194 197 201 206 214 217 227 255 277 300 317 329 334 339 338 338 350 348 340 336 334 333 333 340 341 337 340 344 347 347 346 346 344 342 341 342 343 343 349 352 351 349 344 338 336 335
62 54 138 105 168 300 84 264 259 232 252 253 257 250 269 267 174 169 203 259 285 199 262 248 154 191 292 348 269 274 283 225 221 210 195 194 191 184 185 186 184 181 186 192 194 196 195 193 194 196 196 195 200 204 209 213 218 233 257 278 295 312 324 328 331 328 326 335 338 331 327 326 328 327 329 330 330 336 342 344 346 346 347 346 342 341 344 343 343 349 352 352 351 346 341 338 336
45 28 158 110 141 257 292 260 252 252 248 253 269 256 261 210 165 182 191 252 248 145 279 205 147 224 296 319 267 285 288 224 215 214 205 193 191 191 191 188 190 187 189 193 195 198 196 196 194 197 200 198 204 209 215 220 225 239 256 271 283 303 315 318 320 313 314 324 327 321 316 316 321 323 324 325 329 335 340 338 344 347 348 347 342 344 346 345 346 348 350 352 352 347 343 340 339
48 2 127 147 145 226 248 245 255 257 267 291 286 258 243 172 144 199 191 283 247 187 282 122 161 229 276 291 259 265 256 240 215 213 207 191 191 195 193 188 190 193 198 197 198 201 198 197 196 199 203 203 210 215 220 223 228 237 249 258 267 287 299 306 304 299 305 314 320 318 310 310 316 319 320 324 330 336 338 333 339 346 348 348 346 349 350 350 353 349 348 351 351 348 345 343 341
129 329 84 147 195 215 218 231 260 271 300 303 279 279 193 144 137 209 197 255 215 215 246 180 188 172 171 275 258 281 279 252 218 207 203 192 192 195 193 191 190 195 202 207 205 203 200 198 198 201 205 208 215 220 223 225 229 234 241 247 254 272 285 291 290 289 294 304 316 317 310 308 312 313 317 325 331 336 337 332 332 340 347 349 349 353 352 355 359 354 349 351 350 348 348 343 340
139 152 103 165 198 180 181 208 268 301 317 269 236 296 115 140 193 211 174 221 189 213 253 206 159 112 215 254 283 307 301 264 214 198 197 191 193 193 194 194 193 196 199 209 211 206 202 200 200 202 205 210 218 221 224 225 228 232 236 240 247 260 270 279 278 277 283 296 311 313 308 306 309 310 315 324 330 335 335 332 327 329 340 343 349 354 355 357 0 0 357 354 350 348 348 344 342
163 154 126 188 185 127 166 217 271 274 280 258 248 277 164 181 214 186 146 252 237 197 238 200 148 124 248 257 315 301 313 301 201 196 195 190 193 193 196 197 198 200 202 209 213 211 206 204 202 203 206 210 218 220 222 222 223 230 234 238 241 250 259 267 268 267 271 281 304 311 309 306 308 309 314 323 328 332 332 331 324 319 326 333 346 354 358 1 1 2 2 358 353 352 353 350 349
180 137 104 149 64 144 198 221 214 173 246 247 251 177 191 240 162 151 182 217 255 208 187 195 158 193 209 189 260 251 312 309 188 194 193 190 194 194 199 200 203 204 207 212 213 215 212 211 206 203 208 210 218 219 221 220 220 228 232 235 235 243 251 254 256 256 256 262 291 309 315 312 307 308 314 321 326 329 329 329 325 317 314 325 343 353 1 2 1 1 2 3 360 359 358 355 351
149 104 76 132 210 231 214 208 161 146 254 235 252 39 49 269 152 167 223 179 274 261 151 210 184 217 191 182 221 243 323 226 182 192 190 191 195 196 202 202 207 209 211 215 214 217 215 215 212 208 211 212 219 219 221 220 218 224 227 230 233 240 244 242 243 242 243 244 266 293 320 320 311 310 312 319 325 325 327 329 327 321 308 318 340 350 1 2 1 2 5 9 4 4 1 357 356
97 99 94 232 203 208 200 193 181 183 259 262 284 241 162 290 260 218 253 137 255 258 211 231 222 233 209 210 233 293 326 181 180 187 185 190 195 198 206 206 209 212 213 216 216 217 217 218 216 214 215 215 220 220 221 219 216 219 221 226 230 237 238 234 229 228 235 235 247 267 308 321 320 316 313 320 325 323 325 329 329 324 305 311 336 349 3 4 3 9 13 12 7 11 12 11 10
132 140 181 224 191 198 191 184 195 182 245 261 270 188 178 271 286 270 352 282 261 266 261 259 275 264 246 248 255 289 255 183 184 184 183 188 195 201 209 210 212 215 216 217 218 218 218 219 218 218 219 218 221 221 221 218 215 215 219 226 230 235 234 228 223 223 230 230 238 253 288 310 323 322 319 323 326 322 323 329 328 324 304 305 330 348 3 6 9 15 15 12 11 18 23 24 18
156 136 195 231 197 210 206 181 195 187 213 240 273 222 191 227 246 31 300 274 288 285 272 262 272 269 263 259 251 255 230 193 192 187 187 190 195 202 207 211 213 217 218 219 219 218 218 220 219 220 221 220 222 222 220 216 212 214 219 225 230 233 231 226 221 221 226 225 230 245 275 299 317 324 324 325 325 320 320 327 326 323 304 298 323 345 2 8 15 18 14 12 17 23 26 27 24
173 133 219 246 213 236 244 199 210 216 197 236 280 220 192 236 220 99 268 281 283 258 254 242 255 262 264 263 243 233 218 202 200 196 196 199 202 204 206 209 212 218 220 221 222 219 219 220 219 221 221 222 223 222 220 215 211 214 220 225 230 228 225 224 220 219 222 219 223 240 264 292 312 322 325 324 322 316 316 323 323 321 300 290 314 341 359 9 19 22 16 17 24 27 26 27 26
158 152 201 237 196 238 253 213 218 227 195 176 185 62 280 255 190 203 234 296 283 253 228 223 241 253 256 266 239 210 207 205 206 206 209 209 210 211 212 213 215 221 223 223 223 221 220 220 220 221 221 222 223 223 220 215 212 215 220 225 227 224 223 221 218 219 220 217 221 233 257 288 307 321 325 320 317 311 312 319 321 319 294 284 308 338 358 8 21 23 19 24 31 33 32 31 29
155 215 200 202 162 230 254 217 214 194 141 159 155 270 267 239 174 219 193 240 263 250 189 211 229 242 249 263 235 194 204 210 210 214 217 217 217 218 219 219 220 222 222 223 225 224 222 222 222 221 221 222 222 223 221 218 216 218 222 226 226 223 223 221 219 220 220 220 221 227 249 284 307 322 324 316 311 305 306 316 323 323 303 288 301 336 357 6 21 25 27 32 38 41 41 40 37
222 264 249 221 181 225 259 214 222 169 134 190 205 250 254 12 281 229 199 229 248 258 211 217 230 235 250 270 210 195 211 213 214 216 216 217 219 220 221 221 221 221 222 226 228 226 223 223 223 221 222 222 222 223 222 221 220 221 225 229 229 226 225 224 222 223 224 222 219 220 238 275 308 323 321 311 304 299 302 314 323 328 322 303 301 327 349 5 23 28 34 40 44 48 47 46 45
188 256 286 251 185 221 258 17 239 171 188 214 211 308 230 251 278 313 240 241 248 266 263 248 250 246 259 267 227 221 222 218 221 222 220 221 223 224 224 223 224 223 223 227 229 226 224 224 223 222 222 222 222 222 222 222 221 223 226 230 231 228 228 229 227 228 228 225 222 218 232 267 302 318 316 306 301 294 297 312 323 329 329 317 309 317 338 3 25 32 38 47 50 48 48 52 53
195 227 265 247 200 243 274 308 256 208 231 235 317 285 239 234 269 315 265 259 256 260 263 261 266 268 255 251 246 240 235 232 232 231 229 228 230 231 230 228 226 224 225 229 230 228 226 224 223 222 222 222 222 221 223 222 222 223 225 229 229 227 230 230 230 232 231 229 226 222 231 256 290 305 306 304 300 292 295 310 321 328 331 327 318 315 334 6 35 42 40 51 56 48 48 54 56
221 208 239 260 276 286 291 274 250 225 237 179 225 263 255 249 291 276 264 266 272 274 290 288 281 266 251 247 247 240 239 239 235 234 235 234 233 234 234 230 226 226 228 230 230 230 228 224 223 222 221 222 221 221 222 222 222 222 223 226 227 228 230 230 232 233 234 234 229 227 233 248 278 290 295 303 301 291 294 309 318 326 332 331 325 320 344 26 56 59 50 56 61 56 55 57 57
203 190 243 251 278 303 277 262 266 242 243 183 210 260 268 287 348 263 260 242 45 359 319 297 288 257 251 249 250 242 240 242 237 236 239 238 232 232 233 229 226 229 230 230 232 232 229 225 224 222 220 221 221 221 222 222 222 221 222 224 226 228 227 228 233 234 236 237 233 232 236 247 266 277 284 295 300 292 296 309 314 324 332 333 328 335 4 41 76 83 72 66 65 65 65 64 61
161 159 297 282 304 306 245 257 272 235 256 196 191 268 276 26 194 243 249 56 2 342 304 290 286 269 265 257 258 244 240 246 241 234 232 231 228 228 229 228 228 229 229 231 234 233 230 227 224 222 220 220 221 221 221 222 222 221 222 223 226 228 226 227 231 235 237 238 237 236 241 249 256 266 274 283 295 293 297 308 312 321 329 334 337 350 17 49 100 111 95 87 80 75 73 71 68
126 68 320 298 341 324 256 260 267 170 222 191 163 288 270 200 224 244 259 354 342 329 294 290 287 277 278 265 266 253 247 251 238 228 232 233 231 227 229 232 229 228 232 234 234 233 232 229 224 222 220 220 221 221 221 221 221 222 222 223 226 226 224 225 230 234 236 237 238 239 243 248 252 258 264 272 285 287 295 303 310 321 327 338 350 6 18 38 131 135 118 107 101 93 82 76 72
253 63 35 308 350 322 275 335 38 159 191 187 147 290 261 209 236 253 285 345 328 311 285 291 292 284 281 265 268 265 255 245 232 232 236 237 235 229 232 236 232 231 235 235 233 233 233 229 225 223 220 220 221 221 221 221 221 221 223 224 225 225 223 224 230 233 235 237 237 239 242 247 250 251 256 263 272 278 286 298 309 317 323 345 1 10 12 50 152 145 133 126 119 109 90 81 76
289 9 36 349 347 284 291 348 128 156 188 115 134 254 262 271 268 267 299 307 253 288 283 291 290 285 282 271 266 267 262 238 236 241 241 241 239 233 234 237 233 232 234 233 235 235 233 229 224 223 221 220 221 221 222 221 222 221 222 224 223 223 222 224 228 230 235 236 235 237 241 246 247 245 249 252 261 267 272 288 298 308 320 3 33 12 24 122 157 147 138 135 123 112 99 91 84
25 316 307 344 183 267 307 318 153 175 335 40 143 240 274 292 282 282 339 89 109 292 288 293 287 285 282 278 270 266 269 250 242 248 248 244 241 237 236 237 233 231 232 234 236 234 231 228 223 222 221 221 221 221 222 221 222 221 222 224 224 223 221 222 227 230 236 236 235 236 239 244 244 244 244 244 253 254 258 275 275 279 295 151 142 143 63 133 160 149 137 135 125 117 108 98 93
358 9 258 276 210 281 321 314 235 233 43 7 200 255 285 275 279 286 246 108 337 305 290 291 286 284 281 278 276 269 274 272 256 250 250 246 243 241 238 237 234 232 233 233 234 231 229 226 221 220 221 222 221 221 221 220 220 222 223 224 224 224 222 222 226 231 235 236 236 236 239 243 244 244 243 240 245 246 249 258 260 258 217 165 179 186 140 141 161 155 138 132 130 124 114 106 101
317 13 246 257 228 262 307 307 328 23 99 247 237 253 266 264 282 285 268 260 296 288 280 284 283 284 283 280 281 274 272 275 268 258 254 249 247 245 241 240 237 234 232 232 233 231 229 224 219 218 219 220 219 219 219 219 219 221 223 224 224 223 222 223 227 231 234 237 237 238 240 243 246 246 244 238 237 241 244 246 253 251 226 185 190 195 189 146 159 164 146 133 134 132 123 114 107
206 204 217 290 288 245 262 280 303 18 24 248 246 260 267 270 272 277 279 266 268 272 271 273 276 279 283 284 280 275 273 268 265 266 264 257 252 250 245 241 238 234 231 229 230 229 226 222 218 216 216 215 215 216 217 217 217 219 220 220 221 220 220 222 226 229 232 235 237 238 239 243 248 249 246 238 233 237 240 239 245 246 239 215 193 199 196 157 160 166 153 138 135 134 130 123 115
147 173 163 246 286 268 246 258 266 316 321 260 239 249 272 280 274 274 282 273 252 268 271 268 272 275 277 280 276 273 272 265 267 275 272 261 255 253 248 241 236 232 229 226 225 224 221 218 215 213 212 211 210 210 212 213 212 214 216 216 217 216 218 221 225 228 230 233 236 237 238 243 249 249 245 237 231 233 235 237 238 242 244 230 207 202 196 174 166 167 157 147 139 130 129 126 122
111 141 143 250 263 282 267 267 288 314 265 264 242 251 274 281 279 273 276 277 266 267 273 270 267 269 269 272 274 272 266 265 279 288 277 265 257 253 247 239 231 226 223 221 220 219 217 214 212 210 209 207 206 208 209 209 207 207 209 212 215 215 216 219 222 225 227 231 234 236 239 243 248 248 243 236 232 230 229 232 233 237 242 236 224 201 195 180 169 169 160 152 147 137 131 129 127
75 177 277 286 247 269 273 275 303 320 221 268 345 318 286 282 284 279 271 269 266 263 268 269 266 266 267 268 271 272 271 277 290 288 281 274 261 249 239 231 222 217 215 215 217 217 215 212 212 210 207 205 206 209 209 210 209 209 208 211 215 215 216 219 221 224 227 230 233 236 239 242 247 248 242 235 231 229 227 228 230 234 237 236 227 202 197 188 173 174 165 155 153 148 141 138 133
86 147 243 290 257 281 294 317 323 336 205 275 358 345 291 284 285 280 271 255 255 258 253 260 269 271 268 264 268 277 287 291 292 289 289 286 268 246 231 223 218 217 215 214 215 214 211 209 211 209 207 206 206 209 211 212 212 212 213 215 216 216 217 220 223 226 228 230 233 236 239 241 245 246 242 236 230 229 228 227 227 229 231 232 227 208 197 192 180 179 176 166 159 152 150 151 145
121 147 166 270 273 316 290 306 321 306 223 279 321 315 283 288 292 284 278 252 253 271 261 258 255 253 260 266 270 275 281 287 295 295 296 298 282 245 224 219 217 215 213 212 210 209 208 209 210 209 208 207 207 208 211 211 211 210 212 217 219 218 219 221 222 225 226 228 231 234 237 240 243 244 242 237 232 230 230 228 226 226 228 228 227 217 202 194 187 184 183 178 169 161 162 168 168
283 192 193 236 256 233 240 284 318 317 344 333 326 315 285 301 316 300 298 283 267 284 304 289 262 247 261 276 278 265 262 271 284 289 295 304 284 243 226 220 217 212 210 211 210 208 209 209 210 209 208 208 207 208 208 208 206 204 204 207 210 213 216 216 216 219 221 223 228 231 235 238 241 243 243 239 234 232 231 231 228 225 226 225 224 222 211 200 195 192 190 187 184 177 175 180 184
306 240 216 226 239 253 274 314 339 1 353 346 16 358 293 307 319 287 292 309 291 294 335 301 288 285 271 265 272 268 265 264 264 275 287 295 280 251 234 220 214 214 214 214 212 211 210 209 208 208 207 207 207 207 206 206 205 203 200 198 199 201 204 210 215 218 220 222 227 230 234 238 241 243 244 241 236 233 233 233 232 229 226 225 223 222 219 209 201 200 199 197 196 192 186 185 186
302 263 213 203 173 177 323 348 13 17 294 294 64 87 269 303 294 268 285 311 296 298 312 289 281 288 266 249 269 284 290 285 278 279 280 282 272 248 233 221 215 218 219 216 213 211 209 208 208 207 208 207 206 206 206 206 205 203 204 204 206 205 207 215 221 223 225 227 230 232 234 237 240 244 244 242 238 235 235 234 234 233 229 228 225 223 222 218 211 207 206 205 205 203 198 193 191
249 243 143 118 101 106 120 54 53 246 277 312 37 129 248 295 269 261 296 311 293 299 304 286 266 265 268 277 286 288 294 300 300 291 284 280 266 239 235 229 222 222 221 216 213 212 210 210 209 207 208 207 207 206 206 207 206 205 207 209 212 213 216 222 225 224 226 229 230 232 235 237 240 243 243 242 240 237 237 236 234 233 232 229 228 227 225 223 219 212 210 210 209 210 211 209 202
246 218 140 118 107 121 124 83 62 333 346 326 329 99 230 275 272 286 323 300 291 298 297 286 278 277 287 299 297 292 293 296 287 278 282 284 272 256 249 243 234 226 222 218 215 214 212 210 209 207 207 207 207 207 207 208 208 209 209 210 213 218 222 226 226 225 225 227 229 232 235 237 239 241 242 242 241 239 237 237 235 234 234 233 232 231 229 224 221 218 216 214 212 213 217 219 216
214 164 109 70 76 78 74 78 75 36 16 275 287 39 229 268 282 295 325 245 274 288 286 277 277 280 282 289 295 301 305 300 285 274 273 273 276 278 269 254 241 229 223 220 217 214 212 210 209 208 208 208 208 208 208 208 208 210 211 212 215 218 220 223 225 226 225 225 227 230 232 235 237 240 242 243 242 240 238 237 236 235 236 236 235 234 231 227 223 221 222 221 219 218 219 221 222
137 114 51 28 32 36 44 54 71 55 316 261 277 308 175 280 282 257 196 199 234 287 306 294 292 293 284 276 275 281 293 299 302 300 287 277 282 286 276 245 234 226 219 218 216 214 212 211 210 210 210 209 209 209 209 209 209 211 214 215 217 219 219 219 220 221 222 223 225 228 232 234 237 239 241 243 242 240 238 237 237 236 237 236 236 235 234 232 228 224 223 223 223 223 222 223 222
99 85 49 25 351 10 24 359 42 79 256 266 294 293 179 245 265 249 253 260 232 231 294 295 299 302 300 294 283 274 285 294 302 304 300 304 299 287 268 236 223 214 210 210 212 212 211 211 210 210 210 210 210 210 210 211 211 213 216 218 220 221 221 220 221 221 222 223 225 228 230 232 235 237 239 241 242 241 240 238 237 236 236 236 236 236 235 234 232 228 226 224 224 224 224 223 222
75 81 68 51 342 357 359 319 2 198 249 274 322 319 211 246 263 264 271 277 265 243 254 268 278 288 294 298 300 304 305 299 297 295 294 298 287 269 255 235 218 209 207 208 209 209 210 210 210 210 211 212 211 211 212 213 213 215 217 219 221 223 223 224 225 226 226 227 227 228 228 230 233 235 238 241 242 242 240 240 239 237 238 238 238 237 235 234 232 230 229 226 225 224 224 225 225
111 128 111 111 109 52 303 279 285 269 263 279 306 320 266 274 275 255 250 262 263 250 250 253 258 269 279 290 299 304 301 292 285 282 282 275 260 248 243 236 225 217 212 209 209 209 209 209 210 212 214 214 213 213 214 214 216 218 219 221 223 224 224 226 228 229 230 231 231 230 232 233 235 237 240 244 246 245 243 243 242 241 241 240 240 238 236 234 233 231 231 230 228 226 226 227 227
159 154 123 135 151 151 232 238 233 266 290 298 302 306 214 234 275 267 250 256 257 246 253 265 267 267 277 290 294 293 291 285 272 268 265 256 247 243 241 239 234 228 221 214 211 209 209 210 211 213 215 215 214 214 215 216 218 219 221 222 224 225 226 228 230 232 233 233 233 234 235 237 238 241 245 248 250 249 247 245 243 242 241 240 240 239 236 234 232 231 230 230 231 228 226 226 225
190 134 108 162 184 149 179 195 184 214 323 300 269 240 222 227 281 290 296 300 293 276 268 280 278 272 282 290 285 283 284 283 277 274 270 258 242 233 237 240 238 236 230 223 217 212 211 213 214 216 218 217 216 217 218 219 220 221 222 223 225 226 227 228 230 232 233 235 235 236 238 241 243 245 246 249 251 251 250 248 245 244 242 240 240 239 237 235 232 231 229 228 228 227 226 226 225
158 138 168 224 184 118 114 227 6 63 338 276 253 257 284 308 288 294 332 332 315 318 315 307 294 295 302 287 283 290 290 290 290 284 281 279 264 238 234 236 237 236 234 231 227 222 218 217 217 218 220 219 219 220 221 221 222 222 223 225 226 226 226 228 230 232 234 235 236 238 240 242 244 245 246 248 251 252 252 249 246 245 243 241 240 238 237 236 234 233 232 230 230 228 227 227 227
119 169 220 216 136 84 92 256 346 40 232 272 283 252 286 321 289 310 336 316 303 307 313 320 314 316 319 299 293 295 289 294 300 295 294 291 284 268 250 243 240 237 237 237 236 233 229 225 223 221 221 221 222 223 224 224 224 224 225 226 226 227 228 230 232 234 235 234 235 238 239 241 243 244 246 248 250 251 251 249 246 245 244 242 240 238 237 236 235 235 234 234 233 230 228 227 227
107 188 217 124 141 116 81 151 237 254 254 283 295 282 266 227 240 289 296 284 285 293 303 316 310 308 311 302 301 302 300 306 305 303 302 292 284 277 268 260 253 247 245 245 243 240 236 232 229 227 227 228 227 226 226 226 226 226 227 228 228 228 229 231 233 234 234 234 236 238 239 241 244 244 245 246 248 248 249 248 246 244 243 242 240 238 237 236 236 235 235 234 233 231 229 227 226
43 331 345 31 163 170 147 145 168 200 241 280 304 321 258 222 212 235 260 265 267 276 288 297 291 287 283 279 290 301 303 302 295 292 291 286 280 273 269 267 265 261 257 253 247 241 239 237 234 231 231 232 230 229 228 228 228 228 229 229 229 230 230 232 233 232 233 235 237 239 240 243 244 244 244 245 246 246 247 247 245 244 242 241 240 238 237 236 235 235 235 233 232 230 228 227 226
133 201 271 237 167 128 175 224 141 144 170 217 291 307 272 245 190 209 246 258 251 248 260 271 276 281 277 266 269 283 290 289 284 279 279 280 280 277 273 272 271 269 265 257 248 242 239 238 236 234 233 231 230 230 230 230 231 230 229 228 229 231 231 231 232 232 233 235 237 239 242 244 244 243 243 244 244 245 246 246 244 243 242 241 240 239 237 236 235 235 234 233 232 229 228 227 225
160 183 198 185 156 123 142 272 279 107 159 188 160 287 275 252 172 206 237 251 254 240 237 259 271 273 279 280 268 266 276 282 281 279 278 279 279 279 278 275 270 263 259 254 248 241 237 236 236 235 234 232 232 231 230 231 231 230 229 229 230 231 231 231 231 231 233 234 237 239 241 242 242 242 243 244 245 245 245 244 243 243 242 241 241 240 238 236 235 234 232 231 230 228 227 225 223
Height
793 793 792 792 792 792 794 796 808 814 816 823 822 819 809 806 808 804 801 799 798 796 798 799 799 798 799 799 798 798 797 795 793 799 798 785 782 782 783 785 785 786 787 789 791 792 793 795 795 796 798 798 799 800 801 801 801 801 801 801 801 800 800 800 800 799 800 800 800 801 801 800 800 800 800 799 799 799 798 797 797 797 796 796 795 794 792 791 789 787 786 784 783 781 780 779 778
793 793 791 792 791 793 799 801 815 823 820 825 822 817 809 807 808 799 796 795 794 796 800 800 799 799 799 799 798 799 794 790 787 787 785 781 782 782 783 785 785 787 788 790 791 792 793 794 795 796 797 798 799 799 800 800 801 801 801 801 801 800 800 800 799 799 799 800 800 800 800 800 800 799 799 799 799 798 798 797 797 796 796 795 794 793 792 790 789 787 786 784 783 781 780 779 777
793 793 792 791 792 794 801 804 816 827 826 827 818 811 810 805 800 793 793 793 795 799 800 799 798 797 797 798 798 797 791 788 788 786 784 781 782 781 783 785 786 787 788 790 790 792 792 794 795 795 797 798 798 799 800 800 801 801 801 801 800 800 800 800 799 799 799 799 800 800 800 800 799 799 799 799 798 798 797 797 796 796 795 795 794 793 792 790 788 787 785 784 782 781 779 778 777
793 792 792 791 795 798 804 811 818 824 826 830 818 805 805 800 793 792 795 797 800 801 798 798 797 796 796 796 796 796 790 785 783 783 782 780 780 781 783 784 785 787 788 790 790 791 792 793 794 795 796 797 798 799 799 800 800 800 800 800 800 800 800 799 799 799 799 799 799 799 800 799 799 799 798 798 798 797 797 796 796 796 795 794 793 792 791 789 788 786 785 783 782 781 779 778 776
793 793 793 790 798 802 808 819 824 824 820 821 813 800 799 798 794 793 798 800 801 800 798 798 796 795 796 795 795 792 785 782 781 780 780 778 780 781 782 784 785 787 788 789 790 791 792 793 794 795 796 797 798 798 799 799 800 800 800 800 800 800 799 799 799 799 799 799 799 799 799 799 799 798 798 798 797 797 797 796 796 795 795 794 793 792 790 789 787 786 784 783 781 780 779 777 775
793 793 792 791 798 802 810 821 824 822 812 811 808 797 795 798 798 797 800 800 800 801 799 799 798 798 795 792 791 786 782 781 780 779 778 778 779 780 782 783 785 787 788 789 790 791 792 793 794 795 796 797 798 798 799 799 799 800 799 800 799 799 799 799 799 798 798 798 799 799 799 799 798 798 798 797 797 797 796 796 796 795 794 793 792 791 790 788 787 785 784 782 781 780 778 776 774
793 793 794 796 801 804 813 820 818 817 810 808 805 795 795 797 801 801 799 798 797 799 800 800 800 799 793 790 788 781 780 780 779 778 778 778 779 780 781 783 785 786 787 789 789 790 791 792 793 794 795 796 797 798 798 799 799 799 799 799 799 799 799 799 799 798 798 798 798 799 799 798 798 798 797 797 797 796 796 796 795 794 793 793 792 791 790 788 786 785 784 782 781 779 777 775 774
792 795 798 800 808 812 817 819 817 817 810 808 805 798 795 796 800 799 797 797 796 797 800 800 801 799 792 793 789 779 779 779 778 778 778 779 779 780 781 782 784 785 787 788 789 790 790 791 792 794 795 796 797 797 798 798 798 799 799 799 799 799 799 799 798 798 798 798 798 798 798 798 798 797 797 796 796 795 795 795 795 794 793 792 792 791 789 788 786 785 783 782 780 779 777 775 773
792 795 800 803 812 817 819 819 817 815 809 805 803 798 795 798 800 797 796 797 797 797 798 799 800 798 793 794 788 779 778 777 777 777 778 778 778 779 780 782 783 784 786 787 788 789 790 790 791 793 794 795 796 797 797 798 798 798 798 798 798 798 798 798 798 798 798 798 798 798 798 798 798 797 797 796 795 795 795 794 794 793 793 792 791 790 789 788 786 785 783 782 780 779 776 775 773
794 796 801 807 814 818 820 820 816 812 806 805 802 795 795 798 799 798 796 795 797 797 797 801 801 797 794 793 785 778 776 776 776 776 777 778 778 780 780 782 783 784 785 786 788 788 789 789 791 792 793 795 795 796 796 797 797 797 797 798 798 798 798 798 798 798 798 797 797 797 797 797 797 797 796 796 795 794 794 794 793 793 792 792 791 790 789 787 786 785 783 782 780 778 776 774 773
797 799 801 809 817 818 818 816 813 808 805 807 801 793 796 798 797 798 798 796 798 797 797 801 798 796 797 793 783 776 775 775 775 775 776 777 778 779 780 781 783 784 785 786 787 788 788 789 789 791 792 793 794 795 795 796 796 797 797 797 797 797 797 798 798 798 797 797 797 797 797 797 797 797 796 795 795 794 794 793 793 793 792 792 791 790 789 787 786 785 783 782 780 778 776 774 772
799 802 803 811 816 814 815 814 810 805 804 803 793 791 797 799 796 793 794 795 795 796 796 796 793 793 795 791 781 775 775 774 774 775 775 776 777 779 780 781 782 784 785 786 787 787 788 788 789 790 791 792 793 794 794 795 795 796 796 796 796 796 797 797 797 797 797 797 796 796 796 796 796 796 796 795 794 794 793 793 793 792 792 791 790 789 788 787 786 785 783 781 780 777 776 773 771
798 803 804 810 815 814 815 814 811 808 803 796 790 794 799 796 792 790 792 793 794 795 792 791 791 792 791 786 778 775 774 773 773 774 774 776 777 778 780 781 782 783 784 785 786 787 787 787 788 788 790 791 791 792 793 794 794 795 795 795 795 795 796 796 796 796 796 796 796 796 796 796 796 796 795 795 794 794 793 793 793 792 792 791 790 789 788 787 786 784 783 781 779 777 775 773 771
796 801 800 808 819 817 813 811 809 809 800 792 792 796 797 794 791 792 792 792 792 791 788 789 791 791 789 784 778 775 774 772 773 774 775 776 777 778 780 781 782 782 783 784 785 786 786 786 787 787 788 789 790 791 792 792 793 794 794 794 794 794 795 795 796 796 796 796 796 795 795 795 795 795 795 795 794 793 793 792 792 792 791 791 790 789 788 787 786 784 783 781 779 777 775 772 770
796 799 800 805 816 815 812 810 806 807 800 790 793 796 794 792 791 792 791 789 787 788 788 788 790 789 786 782 776 774 773 772 773 774 775 776 777 778 779 780 781 782 783 783 785 785 785 786 786 786 787 788 789 790 790 791 792 793 793 793 793 793 794 794 795 795 795 795 795 795 795 795 795 794 794 794 794 793 793 792 792 792 791 791 790 789 788 787 786 785 783 781 779 777 774 772 769
796 797 801 805 811 813 811 810 809 808 799 790 796 798 791 789 792 790 788 788 786 787 788 786 786 784 780 778 774 772 772 772 773 774 775 776 777 778 779 780 780 781 782 782 783 784 784 785 785 785 786 787 788 789 790 790 791 791 792 793 792 793 793 793 793 794 794 795 795 794 794 794 794 794 794 794 794 793 793 792 792 791 791 790 790 789 788 787 786 785 783 781 779 777 774 771 769
794 795 803 806 811 812 807 807 808 801 793 789 794 795 789 787 791 790 788 789 786 786 787 783 783 780 777 774 771 772 772 771 773 773 775 776 776 778 778 778 779 779 779 780 781 782 783 783 784 784 785 786 787 788 789 789 790 790 791 791 792 792 792 792 792 793 793 794 794 794 794 794 794 793 793 793 793 793 792 792 791 791 790 790 790 789 788 787 786 785 783 781 779 777 774 771 769
794 799 805 806 808 806 799 798 798 794 789 787 790 793 791 787 788 788 788 787 785 786 785 783 781 777 774 772 771 772 772 772 773 773 774 775 776 776 776 777 777 777 777 778 779 780 781 781 782 783 784 785 785 786 788 788 789 789 790 790 791 791 791 791 791 792 792 793 793 793 793 793 793 793 793 793 792 792 792 792 791 791 790 790 790 789 789 788 786 785 783 781 779 777 774 772 770
794 802 806 803 802 799 794 791 791 791 788 786 789 794 792 788 788 788 786 783 784 785 781 781 780 774 771 769 770 771 771 772 772 772 772 773 773 773 774 774 774 775 775 776 776 778 779 780 781 781 782 783 784 785 786 787 788 788 789 789 790 790 790 790 790 791 791 792 792 792 793 792 792 792 792 792 792 792 792 792 791 790 790 790 789 789 789 788 787 785 784 782 780 778 775 773 771
794 801 803 799 797 795 794 792 789 789 789 787 788 794 793 788 789 789 786 782 781 781 778 779 776 770 767 767 768 770 770 771 771 771 770 770 770 770 771 771 771 771 771 773 775 776 777 778 779 780 781 782 783 784 785 786 787 787 788 788 789 789 789 790 790 790 790 791 791 792 792 792 792 792 791 792 792 792 792 791 791 790 790 789 789 789 789 788 787 786 785 783 781 778 776 774 772
795 799 797 795 798 795 789 789 789 789 792 789 789 794 791 787 791 788 785 785 776 771 772 773 771 767 765 764 766 768 769 769 770 769 768 768 768 768 768 767 768 768 769 771 773 774 775 776 777 778 780 781 781 782 784 785 785 786 787 787 788 788 789 789 789 789 790 790 790 791 791 791 791 791 791 791 791 791 791 791 791 790 789 789 789 789 788 788 787 786 785 784 782 779 777 775 774
794 796 794 795 799 794 785 787 790 791 793 792 791 791 787 787 790 784 784 785 769 761 766 767 765 764 762 763 765 766 767 767 768 767 766 766 766 766 765 765 766 767 768 769 770 771 773 774 776 777 778 779 780 781 782 783 784 785 785 786 787 787 788 788 789 789 789 789 789 790 790 791 790 790 790 790 790 791 791 791 791 790 789 789 789 788 788 788 787 786 785 784 783 781 779 777 776
794 794 794 796 797 792 785 787 790 791 790 789 789 788 788 788 784 781 781 774 759 756 763 763 761 762 762 763 764 764 764 764 764 763 763 763 762 762 762 763 764 765 766 766 767 769 771 773 774 775 776 777 778 779 781 782 783 784 785 786 786 787 788 788 788 788 789 789 789 789 790 790 790 789 789 790 790 790 790 790 790 790 789 788 788 788 788 788 788 787 786 785 784 782 781 779 778
795 794 792 794 797 791 787 789 791 792 788 787 791 790 789 785 781 783 775 761 757 759 760 760 760 761 762 762 762 761 761 761 759 758 758 758 757 758 759 761 761 763 764 764 765 767 769 771 772 774 774 775 777 778 779 780 781 783 784 785 785 786 787 787 788 788 788 788 789 788 789 789 789 789 789 789 789 790 790 790 790 789 789 788 788 788 788 788 788 787 787 786 785 783 782 781 780
794 793 791 792 794 790 789 791 790 791 788 789 793 788 785 783 784 783 763 753 758 759 758 759 758 759 761 760 759 759 758 758 757 756 756 755 756 757 758 759 761 762 761 761 763 764 766 768 770 771 772 774 775 777 778 779 780 781 782 783 784 785 786 787 787 787 788 788 788 788 788 789 789 788 788 788 789 789 789 789 789 789 789 788 788 788 788 788 788 788 787 787 786 784 784 783 781
792 791 791 790 790 788 789 788 785 788 789 790 789 784 783 784 786 773 751 750 757 756 756 757 758 757 757 757 756 756 756 755 754 754 753 753 755 756 755 756 758 758 757 759 761 762 764 766 767 768 770 772 773 775 776 777 778 779 780 781 782 784 785 785 786 786 787 787 787 788 788 788 788 788 788 788 788 788 789 789 789 789 789 788 788 788 788 788 788 788 788 787 787 786 785 784 783
792 792 791 789 789 790 790 785 785 789 788 789 786 781 780 785 788 766 744 751 756 753 754 755 756 754 753 754 753 754 754 752 751 752 752 752 753 751 751 754 754 753 755 757 757 759 762 763 764 766 767 769 771 772 773 775 776 777 778 780 781 782 783 784 785 785 786 786 787 787 787 787 787 787 787 787 787 788 788 788 789 789 789 788 788 788 788 788 788 788 788 788 788 787 786 785 784
793 792 790 787 788 789 788 784 786 789 787 788 787 783 780 786 786 760 744 753 754 752 751 751 753 751 751 752 751 752 751 748 749 751 750 747 746 746 747 748 748 750 752 752 754 757 759 761 762 764 765 767 768 769 771 772 773 775 776 778 779 780 782 782 783 784 785 785 786 786 787 787 787 787 787 787 787 787 787 788 788 788 788 788 788 788 788 788 788 789 788 789 788 788 787 786 786
792 792 789 785 786 784 783 784 788 789 785 786 789 781 773 777 771 748 746 753 752 753 750 748 750 749 750 750 749 749 747 746 748 747 744 741 740 742 742 741 744 746 747 749 752 754 756 758 760 762 763 764 766 767 769 770 772 773 775 776 778 779 780 781 782 783 784 784 785 786 786 786 786 786 786 786 786 787 787 787 788 788 788 788 788 788 788 788 788 789 789 789 789 788 788 787 787
791 793 792 789 789 784 783 789 790 788 786 785 788 778 758 759 758 746 752 756 753 752 748 747 749 749 749 748 747 744 743 744 743 740 737 736 737 738 737 737 741 742 744 747 749 750 752 756 758 759 761 762 764 765 767 768 770 772 773 775 776 778 779 779 780 781 782 783 784 784 785 786 786 786 786 786 786 786 787 787 787 788 788 788 788 788 788 788 788 789 789 789 789 789 788 788 788
791 793 795 798 796 784 781 791 790 784 787 786 788 780 758 752 752 748 754 756 755 751 747 749 747 747 745 743 743 740 739 739 737 735 733 733 733 734 733 733 737 739 741 743 744 746 750 753 755 757 759 760 762 763 765 767 769 770 772 773 775 776 777 778 779 780 781 782 783 784 784 785 785 785 786 785 786 786 786 786 787 787 787 788 788 788 788 788 789 789 789 789 789 789 789 789 789
795 793 793 802 802 787 780 791 792 784 786 788 786 778 763 757 751 749 757 757 755 753 748 748 744 742 740 737 738 736 734 733 733 731 728 729 730 729 729 729 732 734 736 738 740 744 746 749 752 754 756 758 760 762 764 766 767 769 770 772 773 774 775 776 777 778 779 780 781 783 783 784 784 784 785 785 785 785 786 786 786 787 787 787 787 788 788 788 789 789 789 789 789 789 789 789 790
799 798 793 796 798 793 785 786 793 789 786 786 785 777 765 759 750 748 757 755 753 753 746 744 740 737 735 733 734 733 731 729 729 727 724 725 726 725 725 725 727 729 731 734 737 740 742 745 748 751 753 755 758 760 762 764 766 767 769 771 772 773 774 775 776 777 778 779 780 781 782 783 783 784 784 785 785 785 785 785 786 786 787 787 787 788 788 788 788 789 789 789 789 790 790 790 790
797 802 799 797 798 799 790 781 789 792 787 784 785 782 767 758 754 749 751 752 752 750 745 742 738 735 733 732 732 730 729 727 723 720 720 722 721 721 721 722 724 726 728 731 733 736 738 742 744 747 750 753 756 758 760 762 764 766 768 769 770 771 773 773 775 776 776 778 779 780 781 782 782 783 783 784 784 784 784 785 785 786 786 787 787 787 788 788 788 789 789 790 790 790 790 791 791
792 798 796 797 799 801 795 786 787 789 787 785 786 783 766 757 758 751 746 750 751 746 742 742 738 734 732 730 730 728 727 724 718 715 718 718 717 718 718 719 722 723 726 728 731 734 736 739 741 744 747 750 753 755 758 760 762 765 766 767 769 770 771 772 773 774 775 776 777 779 779 780 781 782 782 782 783 783 783 784 784 785 785 786 786 787 788 788 788 788 788 789 791 791 791 791 792
792 796 797 797 797 798 795 788 789 792 788 784 784 781 767 756 757 753 745 747 749 743 740 740 737 735 732 730 727 725 725 720 714 714 716 715 715 715 715 716 718 720 723 726 728 731 734 737 739 742 744 747 750 753 755 758 760 762 764 765 766 767 768 770 771 772 774 774 775 777 778 779 780 780 781 781 782 782 782 783 783 784 785 785 786 786 787 787 788 788 788 789 790 791 792 792 792
797 798 800 800 801 797 791 787 792 797 787 777 781 782 771 759 754 750 744 744 745 739 737 737 734 732 730 727 725 723 721 716 712 713 713 713 713 712 713 714 716 718 720 723 726 728 731 733 736 738 741 744 747 749 751 753 756 758 760 762 762 764 766 767 769 770 771 773 774 775 776 777 778 779 779 780 780 781 781 782 782 783 784 784 785 786 787 787 788 788 788 789 790 790 792 793 793
798 799 799 800 804 797 788 790 794 796 788 777 780 780 768 757 749 742 739 740 738 733 733 731 727 728 727 725 722 719 717 714 712 712 711 711 710 710 712 712 713 715 717 720 722 725 728 730 733 735 738 741 743 745 748 750 752 754 756 758 760 762 764 765 767 768 769 771 772 773 774 775 776 777 778 778 779 779 780 781 781 782 783 783 784 785 786 786 787 788 788 789 790 790 791 792 792
799 801 800 797 801 795 788 793 796 794 788 777 779 782 765 750 744 736 732 734 730 728 730 727 725 726 723 721 719 717 715 712 710 709 709 709 709 709 710 711 712 713 715 718 720 722 726 728 730 733 735 737 740 742 745 747 750 753 755 757 759 760 762 764 765 766 768 769 770 771 772 773 774 775 776 777 778 778 778 779 780 781 781 782 783 784 785 786 786 787 787 787 789 790 791 791 791
800 801 799 794 798 796 786 788 793 792 790 783 782 782 763 746 740 728 725 732 729 727 729 728 729 725 719 718 718 717 715 711 708 706 707 708 708 708 709 709 711 712 714 716 718 721 723 725 727 729 732 734 737 740 743 746 749 752 754 756 758 759 761 762 764 765 766 767 768 769 769 771 772 773 774 775 776 776 777 778 779 779 780 781 782 783 783 784 785 786 787 787 787 789 791 791 791
800 801 796 791 794 796 791 791 793 788 791 793 781 769 753 739 736 724 720 730 728 726 727 721 721 723 721 719 717 717 716 713 710 705 705 707 707 708 708 709 710 711 713 713 715 717 719 722 724 726 729 731 734 737 740 744 746 749 752 754 757 758 760 761 761 762 763 764 765 766 767 769 770 771 772 773 774 775 775 776 777 778 779 779 780 781 782 783 784 785 785 786 786 786 788 789 790
796 797 797 795 794 797 796 795 792 781 782 791 784 773 755 738 735 727 719 722 719 719 724 715 710 714 717 715 710 712 714 714 713 708 706 707 707 708 707 708 710 709 710 711 713 715 717 719 722 724 727 729 732 735 738 741 743 745 748 751 753 754 756 756 756 757 759 760 762 764 766 767 768 769 770 771 772 773 773 774 775 776 777 778 779 780 781 782 783 784 784 785 785 785 786 787 788
791 798 806 804 800 799 798 794 790 783 781 789 793 787 771 750 738 729 725 724 716 716 720 714 710 709 709 709 707 708 710 710 711 709 708 707 706 708 707 707 707 707 708 710 712 715 716 718 720 723 725 727 730 733 735 738 740 742 744 746 748 750 751 752 752 755 757 759 761 762 764 765 766 767 768 769 769 770 771 772 773 774 775 777 777 778 779 780 781 782 783 784 785 785 785 785 786
791 806 812 804 799 798 799 796 794 794 790 791 795 791 784 768 744 731 734 731 720 715 714 709 708 707 705 706 707 707 707 707 709 707 707 707 706 706 706 705 706 706 708 710 712 714 715 717 719 721 723 725 728 730 733 735 736 739 741 744 746 747 748 749 751 754 756 758 759 761 762 763 764 765 766 767 767 768 769 770 771 772 773 775 775 776 777 779 780 781 782 783 783 784 784 784 785
797 814 814 805 804 801 802 799 795 802 796 783 788 792 786 769 741 733 740 733 721 715 711 707 706 705 705 705 705 706 707 708 709 708 706 706 706 706 705 705 705 707 708 710 711 713 715 717 719 720 722 724 727 729 731 733 735 737 739 741 743 745 747 749 751 753 754 756 757 758 760 761 762 763 763 764 765 766 767 768 769 770 771 772 773 775 776 777 778 779 780 781 781 782 783 783 784
804 816 813 808 809 806 804 801 795 802 796 780 785 794 787 764 736 729 735 730 721 714 710 709 708 707 707 706 704 704 706 708 708 708 708 706 705 705 705 706 706 706 708 709 711 713 715 717 719 720 721 723 725 727 729 731 733 735 737 739 741 743 746 748 750 751 753 754 755 756 757 758 759 760 761 762 763 763 765 766 767 768 769 770 771 772 773 774 775 776 778 778 780 780 781 782 782
810 811 803 800 804 804 804 805 800 798 790 784 794 800 792 769 736 721 723 722 720 715 711 709 707 707 707 705 706 705 706 706 706 706 706 706 705 704 704 705 706 706 707 709 710 712 714 715 718 719 721 723 724 726 728 730 732 733 734 736 738 741 743 745 747 749 750 751 752 753 754 756 756 757 758 759 760 761 762 763 765 766 767 768 769 770 771 772 773 774 775 776 777 778 779 779 780
809 801 794 791 793 796 798 801 801 794 783 786 801 805 799 777 740 720 720 722 724 721 715 712 707 704 703 702 704 705 707 707 706 705 704 705 704 703 704 704 705 706 706 708 709 711 713 714 716 718 719 721 722 724 726 728 729 730 732 734 736 738 740 742 743 745 746 747 748 750 752 753 754 755 755 756 757 759 760 761 762 763 764 765 767 768 769 770 771 772 773 774 775 775 776 777 777
802 796 795 793 793 794 791 793 799 795 785 792 804 802 794 775 740 723 722 719 720 720 717 715 710 706 703 701 700 703 707 707 707 706 704 704 703 703 704 703 704 705 705 706 708 709 711 712 714 716 717 718 720 722 724 725 727 728 730 732 733 736 738 739 740 741 743 744 745 747 748 749 750 751 752 753 754 756 757 758 759 760 762 763 764 766 767 768 769 770 771 772 772 773 774 774 775
801 794 793 791 795 799 794 796 803 796 787 796 808 799 785 764 734 719 718 714 714 715 713 712 712 710 706 704 705 706 707 706 706 706 704 703 703 702 703 702 702 703 703 705 706 707 709 710 711 713 714 716 718 719 721 722 724 725 727 729 731 733 734 736 737 738 740 741 742 744 745 746 747 748 749 751 752 754 755 756 757 759 760 761 762 764 765 766 767 768 769 769 770 770 771 772 772
802 800 799 793 793 794 789 790 788 784 787 797 803 792 771 750 723 712 714 714 715 715 715 716 714 714 714 712 710 706 702 702 704 704 702 701 702 702 702 702 701 702 702 703 703 705 706 707 709 710 711 713 715 716 718 719 720 722 724 726 728 729 731 732 734 735 737 738 740 741 742 744 745 746 747 749 750 752 753 754 756 757 758 759 760 761 763 764 764 765 765 766 766 767 768 768 769
804 807 800 794 792 788 794 807 805 802 801 795 793 780 760 743 721 711 714 710 709 711 715 717 711 712 717 711 704 701 697 697 698 698 697 698 700 701 701 700 700 701 702 702 702 702 703 704 706 707 708 710 712 713 714 715 717 719 721 723 724 726 728 729 731 732 734 735 737 738 739 741 742 744 746 747 748 750 751 752 753 754 755 756 757 758 759 760 761 761 762 762 763 764 765 765 766
800 802 794 798 804 793 793 814 827 825 805 786 785 772 754 745 722 707 710 704 700 702 704 707 705 706 710 703 697 699 697 696 697 697 697 696 698 699 699 699 699 699 700 701 701 701 701 702 703 704 706 708 709 710 711 713 715 716 718 719 721 722 724 726 727 729 730 732 734 736 737 739 740 742 743 745 746 747 749 750 750 751 752 753 754 755 756 757 758 759 760 761 763 763 764 765 766
796 795 795 802 807 799 793 798 807 813 799 784 785 773 758 753 730 707 708 705 698 698 699 703 702 701 701 698 697 699 699 699 699 698 699 698 697 697 697 697 697 697 698 698 699 700 701 701 700 701 702 704 705 706 708 710 712 713 714 716 718 719 721 723 724 726 728 730 731 733 734 735 737 739 741 742 743 744 745 746 747 748 749 750 752 753 755 756 757 759 760 761 762 763 764 764 765
801 798 804 802 793 791 797 795 789 795 796 785 782 781 771 759 737 713 707 706 701 699 701 702 698 697 697 696 696 696 697 698 697 695 696 696 696 695 695 694 694 694 695 695 696 698 699 699 699 700 700 701 702 704 706 707 708 710 711 713 715 717 719 721 722 724 726 727 728 730 731 732 734 736 737 738 739 740 741 743 744 745 747 748 750 752 753 755 756 757 758 759 760 761 761 762 762
808 803 807 807 796 788 792 797 790 786 790 787 779 774 757 739 729 716 704 703 701 699 700 698 695 697 698 698 696 694 695 695 694 694 694 693 694 693 692 692 692 692 692 693 694 694 695 697 698 697 697 699 700 702 703 704 705 707 709 710 712 714 716 717 719 721 722 723 725 726 727 729 730 731 733 734 735 737 738 740 741 742 744 745 747 749 750 752 753 754 755 756 757 758 758 759 759
799 797 800 801 798 797 794 797 798 787 783 787 785 771 741 719 717 711 699 697 698 699 700 697 696 696 696 700 700 697 696 695 695 695 693 693 692 691 690 690 690 690 690 690 691 691 692 693 694 694 695 696 697 698 699 700 701 703 704 706 708 710 711 713 715 716 718 719 721 722 723 725 726 727 729 730 731 733 735 736 737 739 740 742 743 745 747 749 750 750 751 752 754 755 755 756 757
788 786 787 787 788 793 788 789 801 800 788 784 787 775 735 706 706 703 694 694 695 700 702 697 697 697 696 699 701 701 700 696 696 695 693 693 691 689 689 688 688 688 687 687 687 688 688 688 689 691 692 692 692 693 694 695 697 698 699 701 703 705 706 708 710 711 713 714 716 718 719 720 722 723 725 727 728 730 731 733 734 735 737 738 740 741 743 744 745 746 747 748 749 751 752 753 753